Time,TemperatureF,DewpointF,PressureIn,WindDirection,WindDirectionDegrees,WindSpeedMPH,WindSpeedGustMPH,Humidity,HourlyPrecipIn,Conditions,Clouds,dailyrainin,SoftwareType,DateUTC
2013-02-17 00:00:00,44.2,8.8,25.57,SSE,158,10.1,10.1,23,0.00,,---,0.00,VWS V14.01,2013-02-17 06:00:00,
2013-02-17 00:05:00,44.4,5.9,25.57,ESE,112,8.5,8.5,20,0.00,,---,0.00,VWS V14.01,2013-02-17 06:05:00,
2013-02-17 00:10:00,44.2,8.8,25.57,SE,135,8.1,13.0,23,0.00,,---,0.00,VWS V14.01,2013-02-17 06:10:00,
2013-02-17 00:15:00,44.6,6.0,25.57,SSE,158,7.2,7.2,20,0.00,,---,0.00,VWS V14.01,2013-02-17 06:15:00,
2013-02-17 00:20:00,44.8,6.2,25.57,SE,135,4.3,7.4,20,0.00,,---,0.00,VWS V14.01,2013-02-17 06:20:00,
2013-02-17 00:25:00,44.6,6.0,25.57,West,270,3.6,6.3,20,0.00,,---,0.00,VWS V14.01,2013-02-17 06:25:00,
2013-02-17 00:30:00,45.9,7.1,25.54,South,180,5.8,5.8,20,0.00,,---,0.00,VWS V14.01,2013-02-17 06:30:00,
2013-02-17 00:35:00,44.8,6.2,25.54,SSE,158,2.7,3.1,20,0.00,,---,0.00,VWS V14.01,2013-02-17 06:35:00,
2013-02-17 00:40:00,44.6,6.0,25.54,SE,135,7.6,14.3,20,0.00,,---,0.00,VWS V14.01,2013-02-17 06:40:00,
2013-02-17 00:45:00,45.0,6.3,25.54,ESE,112,8.5,8.5,20,0.00,,---,0.00,VWS V14.01,2013-02-17 06:45:00,
2013-02-17 00:50:00,44.2,5.7,25.54,ESE,112,5.6,5.6,20,0.00,,---,0.00,VWS V14.01,2013-02-17 06:50:00,
2013-02-17 00:55:00,44.4,5.9,25.54,SE,135,4.9,4.9,20,0.00,,---,0.00,VWS V14.01,2013-02-17 06:55:00,
2013-02-17 01:00:00,44.8,6.2,25.54,SE,135,7.4,7.4,20,0.00,,---,0.00,VWS V14.01,2013-02-17 07:00:00,
2013-02-17 01:05:00,44.4,5.9,25.54,ESE,112,5.4,5.4,20,0.00,,---,0.00,VWS V14.01,2013-02-17 07:05:00,
2013-02-17 01:10:00,44.6,6.0,25.54,SE,135,7.6,7.6,20,0.00,,---,0.00,VWS V14.01,2013-02-17 07:10:00,
2013-02-17 01:15:00,44.1,5.6,25.54,SSE,158,4.3,7.8,20,0.00,,---,0.00,VWS V14.01,2013-02-17 07:15:00,
2013-02-17 01:20:00,44.1,5.6,25.54,SSE,158,4.9,5.6,20,0.00,,---,0.00,VWS V14.01,2013-02-17 07:20:00,
2013-02-17 01:25:00,44.1,5.6,25.54,SSE,158,5.6,5.6,20,0.00,,---,0.00,VWS V14.01,2013-02-17 07:25:00,
2013-02-17 01:31:00,43.0,4.7,25.57,ESE,112,6.3,7.4,20,0.00,,---,0.00,VWS V14.01,2013-02-17 07:31:00,
2013-02-17 01:36:00,43.5,5.1,25.57,SE,135,4.9,5.6,20,0.00,,---,0.00,VWS V14.01,2013-02-17 07:36:00,
2013-02-17 01:41:00,43.7,5.3,25.57,ESE,112,5.4,6.5,20,0.00,,---,0.00,VWS V14.01,2013-02-17 07:41:00,
2013-02-17 01:46:00,43.7,5.3,25.51,SSW,202,2.0,2.5,20,0.00,,---,0.00,VWS V14.01,2013-02-17 07:46:00,
2013-02-17 01:51:00,46.0,7.2,25.51,SSW,202,5.6,8.1,20,0.00,,---,0.00,VWS V14.01,2013-02-17 07:51:00,
2013-02-17 01:56:00,45.7,6.9,25.51,South,180,1.3,6.0,20,0.00,,---,0.00,VWS V14.01,2013-02-17 07:56:00,
2013-02-17 02:01:00,46.8,6.7,25.54,SSW,202,2.7,6.5,19,0.00,,---,0.00,VWS V14.01,2013-02-17 08:01:00,
2013-02-17 02:06:00,46.6,6.5,25.54,SSW,202,5.4,5.4,19,0.00,,---,0.00,VWS V14.01,2013-02-17 08:06:00,
2013-02-17 02:11:00,46.9,6.8,25.54,SW,225,3.6,6.0,19,0.00,,---,0.00,VWS V14.01,2013-02-17 08:11:00,
2013-02-17 02:16:00,48.4,8.0,25.54,SW,225,6.3,6.3,19,0.00,,---,0.00,VWS V14.01,2013-02-17 08:16:00,
2013-02-17 02:21:00,48.2,7.9,25.54,SSW,202,4.0,8.1,19,0.00,,---,0.00,VWS V14.01,2013-02-17 08:21:00,
2013-02-17 02:26:00,47.1,7.0,25.54,East,90,2.7,4.3,19,0.00,,---,0.00,VWS V14.01,2013-02-17 08:26:00,
2013-02-17 02:31:00,45.3,6.6,25.54,SSE,158,3.6,6.3,20,0.00,,---,0.00,VWS V14.01,2013-02-17 08:31:00,
2013-02-17 02:36:00,45.1,6.5,25.54,SSE,158,5.8,6.3,20,0.00,,---,0.00,VWS V14.01,2013-02-17 08:36:00,
2013-02-17 02:41:00,45.7,6.9,25.54,SE,135,3.4,9.4,20,0.00,,---,0.00,VWS V14.01,2013-02-17 08:41:00,
2013-02-17 02:46:00,46.6,6.5,25.54,SW,225,12.5,12.5,19,0.00,,---,0.00,VWS V14.01,2013-02-17 08:46:00,
2013-02-17 02:51:00,46.8,6.7,25.54,SSE,158,1.1,2.7,19,0.00,,---,0.00,VWS V14.01,2013-02-17 08:51:00,
2013-02-17 02:56:00,46.6,6.5,25.54,East,90,2.2,3.6,19,0.00,,---,0.00,VWS V14.01,2013-02-17 08:56:00,
2013-02-17 03:01:00,45.3,6.6,25.54,ESE,112,4.7,5.4,20,0.00,,---,0.00,VWS V14.01,2013-02-17 09:01:00,
2013-02-17 03:06:00,45.5,6.8,25.54,SE,135,2.9,6.0,20,0.00,,---,0.00,VWS V14.01,2013-02-17 09:06:00,
2013-02-17 03:11:00,44.8,6.2,25.54,ESE,112,5.6,7.4,20,0.00,,---,0.00,VWS V14.01,2013-02-17 09:11:00,
2013-02-17 03:16:00,45.1,6.5,25.51,SE,135,7.8,7.8,20,0.00,,---,0.00,VWS V14.01,2013-02-17 09:16:00,
2013-02-17 03:21:00,44.8,6.2,25.51,SSE,158,8.1,8.1,20,0.00,,---,0.00,VWS V14.01,2013-02-17 09:21:00,
2013-02-17 03:26:00,44.8,6.2,25.51,ESE,112,8.1,8.7,20,0.00,,---,0.00,VWS V14.01,2013-02-17 09:26:00,
2013-02-17 03:31:00,44.6,6.0,25.51,SE,135,8.1,8.5,20,0.00,,---,0.00,VWS V14.01,2013-02-17 09:31:00,
2013-02-17 03:36:00,45.1,6.5,25.51,SE,135,5.8,8.7,20,0.00,,---,0.00,VWS V14.01,2013-02-17 09:36:00,
2013-02-17 03:41:00,44.8,6.2,25.51,SE,135,7.8,8.7,20,0.00,,---,0.00,VWS V14.01,2013-02-17 09:41:00,
2013-02-17 03:46:00,44.6,6.0,25.51,SE,135,6.3,7.8,20,0.00,,---,0.00,VWS V14.01,2013-02-17 09:46:00,
2013-02-17 03:51:00,45.1,6.5,25.51,SE,135,3.6,7.4,20,0.00,,---,0.00,VWS V14.01,2013-02-17 09:51:00,
2013-02-17 03:56:00,45.3,6.6,25.51,South,180,6.5,6.5,20,0.00,,---,0.00,VWS V14.01,2013-02-17 09:56:00,
2013-02-17 04:01:00,45.5,6.8,25.51,SE,135,4.5,6.3,20,0.00,,---,0.00,VWS V14.01,2013-02-17 10:01:00,
2013-02-17 04:02:00,44.4,5.9,25.51,ESE,112,8.1,8.1,20,0.00,,---,0.00,VWS V14.01,2013-02-17 10:02:00,
2013-02-17 04:06:00,45.3,6.6,25.51,SE,135,7.2,7.4,20,0.00,,---,0.00,VWS V14.01,2013-02-17 10:06:00,
2013-02-17 04:11:00,45.3,6.6,25.51,ESE,112,3.6,4.3,20,0.00,,---,0.00,VWS V14.01,2013-02-17 10:11:00,
2013-02-17 04:16:00,44.6,6.0,25.51,ESE,112,3.4,4.9,20,0.00,,---,0.00,VWS V14.01,2013-02-17 10:16:00,
2013-02-17 04:21:00,44.4,5.9,25.51,ESE,112,3.8,5.6,20,0.00,,---,0.00,VWS V14.01,2013-02-17 10:21:00,
2013-02-17 04:26:00,43.7,5.3,25.51,SE,135,3.4,4.3,20,0.00,,---,0.00,VWS V14.01,2013-02-17 10:26:00,
2013-02-17 04:31:00,44.1,5.6,25.48,WSW,248,3.8,4.0,20,0.00,,---,0.00,VWS V14.01,2013-02-17 10:31:00,
2013-02-17 04:36:00,45.1,6.5,25.48,SW,225,4.7,5.6,20,0.00,,---,0.00,VWS V14.01,2013-02-17 10:36:00,
2013-02-17 04:41:00,45.1,6.5,25.48,SW,225,3.8,3.8,20,0.00,,---,0.00,VWS V14.01,2013-02-17 10:41:00,
2013-02-17 04:46:00,44.1,5.6,25.48,SE,135,4.3,4.3,20,0.00,,---,0.00,VWS V14.01,2013-02-17 10:46:00,
2013-02-17 04:51:00,43.5,5.1,25.48,SSE,158,4.7,4.9,20,0.00,,---,0.00,VWS V14.01,2013-02-17 10:51:00,
2013-02-17 04:56:00,43.0,4.7,25.48,ESE,112,6.3,8.7,20,0.00,,---,0.00,VWS V14.01,2013-02-17 10:56:00,
2013-02-17 05:01:00,43.9,5.4,25.48,ESE,112,7.2,10.5,20,0.00,,---,0.00,VWS V14.01,2013-02-17 11:01:00,
2013-02-17 05:06:00,43.3,5.0,25.48,SE,135,7.4,8.1,20,0.00,,---,0.00,VWS V14.01,2013-02-17 11:06:00,
2013-02-17 05:11:00,42.8,4.5,25.48,SSE,158,5.8,8.1,20,0.00,,---,0.00,VWS V14.01,2013-02-17 11:11:00,
2013-02-17 05:16:00,43.0,4.7,25.45,ESE,112,6.5,7.8,20,0.00,,---,0.00,VWS V14.01,2013-02-17 11:16:00,
2013-02-17 05:21:00,43.5,5.1,25.45,SE,135,6.0,7.2,20,0.00,,---,0.00,VWS V14.01,2013-02-17 11:21:00,
2013-02-17 05:26:00,43.5,5.1,25.45,ESE,112,5.4,6.3,20,0.00,,---,0.00,VWS V14.01,2013-02-17 11:26:00,
2013-02-17 05:31:00,43.9,5.4,25.45,SE,135,6.5,7.6,20,0.00,,---,0.00,VWS V14.01,2013-02-17 11:31:00,
2013-02-17 05:36:00,43.5,5.1,25.45,ESE,112,8.1,8.1,20,0.00,,---,0.00,VWS V14.01,2013-02-17 11:36:00,
2013-02-17 05:41:00,43.7,5.3,25.45,SE,135,8.1,8.1,20,0.00,,---,0.00,VWS V14.01,2013-02-17 11:41:00,
2013-02-17 05:46:00,43.5,5.1,25.45,SE,135,5.6,9.8,20,0.00,,---,0.00,VWS V14.01,2013-02-17 11:46:00,
2013-02-17 05:51:00,43.0,4.7,25.45,ESE,112,7.4,11.0,20,0.00,,---,0.00,VWS V14.01,2013-02-17 11:51:00,
2013-02-17 05:56:00,43.2,4.8,25.45,SSE,158,6.3,8.5,20,0.00,,---,0.00,VWS V14.01,2013-02-17 11:56:00,
2013-02-17 06:01:00,43.2,4.8,25.48,SE,135,7.4,10.1,20,0.00,,---,0.00,VWS V14.01,2013-02-17 12:01:00,
2013-02-17 06:06:00,43.0,4.7,25.48,ESE,112,5.6,8.5,20,0.00,,---,0.00,VWS V14.01,2013-02-17 12:06:00,
2013-02-17 06:11:00,42.3,5.1,25.48,ESE,112,8.7,8.7,21,0.00,,---,0.00,VWS V14.01,2013-02-17 12:11:00,
2013-02-17 06:16:00,42.3,5.1,25.48,ESE,112,10.7,11.0,21,0.00,,---,0.00,VWS V14.01,2013-02-17 12:16:00,
2013-02-17 06:21:00,42.8,4.5,25.48,ESE,112,8.5,9.8,20,0.00,,---,0.00,VWS V14.01,2013-02-17 12:21:00,
2013-02-17 06:26:00,43.0,4.7,25.48,ESE,112,6.0,6.0,20,0.00,,---,0.00,VWS V14.01,2013-02-17 12:26:00,
2013-02-17 06:31:00,43.0,4.7,25.48,ESE,112,9.6,10.1,20,0.00,,---,0.00,VWS V14.01,2013-02-17 12:31:00,
2013-02-17 06:36:00,42.8,4.5,25.48,ESE,112,6.5,7.8,20,0.00,,---,0.00,VWS V14.01,2013-02-17 12:36:00,
2013-02-17 06:41:00,42.8,4.5,25.48,East,90,5.6,10.7,20,0.00,,---,0.00,VWS V14.01,2013-02-17 12:41:00,
2013-02-17 06:46:00,42.6,5.4,25.51,SE,135,3.6,7.8,21,0.00,,---,0.00,VWS V14.01,2013-02-17 12:46:00,
2013-02-17 06:51:00,42.8,4.5,25.51,SE,135,6.5,7.6,20,0.00,,---,0.00,VWS V14.01,2013-02-17 12:51:00,
2013-02-17 06:56:00,43.3,5.0,25.51,ESE,112,7.2,7.4,20,0.00,,---,0.00,VWS V14.01,2013-02-17 12:56:00,
2013-02-17 07:01:00,43.0,4.7,25.48,SE,135,4.9,4.9,20,0.00,,---,0.00,VWS V14.01,2013-02-17 13:01:00,
2013-02-17 07:06:00,42.3,5.1,25.48,SSE,158,6.5,6.5,21,0.00,,---,0.00,VWS V14.01,2013-02-17 13:06:00,
2013-02-17 07:11:00,43.0,4.7,25.48,SE,135,5.8,5.8,20,0.00,,---,0.00,VWS V14.01,2013-02-17 13:11:00,
2013-02-17 07:16:00,42.4,5.3,25.48,ESE,112,8.5,8.7,21,0.00,,---,0.00,VWS V14.01,2013-02-17 13:16:00,
2013-02-17 07:21:00,42.3,5.1,25.48,ESE,112,3.6,4.0,21,0.00,,---,0.00,VWS V14.01,2013-02-17 13:21:00,
2013-02-17 07:26:00,41.5,4.5,25.48,ESE,112,10.3,10.5,21,0.00,,---,0.00,VWS V14.01,2013-02-17 13:26:00,
2013-02-17 07:31:00,42.4,5.3,25.48,ESE,112,8.7,9.6,21,0.00,,---,0.00,VWS V14.01,2013-02-17 13:31:00,
2013-02-17 07:36:00,42.6,5.4,25.48,SSE,158,5.6,5.6,21,0.00,,---,0.00,VWS V14.01,2013-02-17 13:36:00,
2013-02-17 07:41:00,42.3,5.1,25.48,SSE,158,5.8,5.8,21,0.00,,---,0.00,VWS V14.01,2013-02-17 13:41:00,
2013-02-17 07:46:00,42.3,5.1,25.48,ESE,112,11.0,12.3,21,0.00,,---,0.00,VWS V14.01,2013-02-17 13:46:00,
2013-02-17 07:51:00,43.3,5.0,25.48,ESE,112,10.3,10.3,20,0.00,,---,0.00,VWS V14.01,2013-02-17 13:51:00,
2013-02-17 07:56:00,45.3,6.6,25.48,ESE,112,10.3,13.0,20,0.00,,---,0.00,VWS V14.01,2013-02-17 13:56:00,
2013-02-17 08:01:00,46.8,6.7,25.42,ESE,112,9.2,12.5,19,0.00,,---,0.00,VWS V14.01,2013-02-17 14:01:00,
2013-02-17 08:06:00,47.7,7.4,25.42,ESE,112,10.7,10.7,19,0.00,,---,0.00,VWS V14.01,2013-02-17 14:06:00,
2013-02-17 08:11:00,47.8,7.6,25.42,East,90,6.5,7.2,19,0.00,,---,0.00,VWS V14.01,2013-02-17 14:11:00,
2013-02-17 08:16:00,48.7,8.3,25.42,East,90,7.8,8.7,19,0.00,,---,0.00,VWS V14.01,2013-02-17 14:16:00,
2013-02-17 08:21:00,49.1,8.6,25.42,ESE,112,4.9,4.9,19,0.00,,---,0.00,VWS V14.01,2013-02-17 14:21:00,
2013-02-17 08:26:00,50.0,9.4,25.42,East,90,6.7,6.7,19,0.00,,---,0.00,VWS V14.01,2013-02-17 14:26:00,
2013-02-17 08:31:00,50.5,9.8,25.45,ENE,68,9.0,10.1,19,0.00,,---,0.00,VWS V14.01,2013-02-17 14:31:00,
2013-02-17 08:36:00,51.3,10.4,25.45,ENE,68,6.3,7.4,19,0.00,,---,0.00,VWS V14.01,2013-02-17 14:36:00,
2013-02-17 08:41:00,52.0,9.8,25.45,ENE,68,6.3,6.5,18,0.00,,---,0.00,VWS V14.01,2013-02-17 14:41:00,
2013-02-17 08:46:00,52.5,10.2,25.42,ENE,68,7.8,9.6,18,0.00,,---,0.00,VWS V14.01,2013-02-17 14:46:00,
2013-02-17 08:51:00,53.4,11.0,25.42,ENE,68,6.0,6.3,18,0.00,,---,0.00,VWS V14.01,2013-02-17 14:51:00,
2013-02-17 08:56:00,54.5,11.9,25.42,ENE,68,7.4,7.6,18,0.00,,---,0.00,VWS V14.01,2013-02-17 14:56:00,
2013-02-17 09:01:00,55.0,12.3,25.42,ENE,68,7.4,9.0,18,0.00,,---,0.00,VWS V14.01,2013-02-17 15:01:00,
2013-02-17 09:06:00,56.3,12.1,25.42,SE,135,6.7,7.8,17,0.00,,---,0.00,VWS V14.01,2013-02-17 15:06:00,
2013-02-17 09:11:00,57.0,12.7,25.42,SSW,202,3.4,5.6,17,0.00,,---,0.00,VWS V14.01,2013-02-17 15:11:00,
2013-02-17 09:16:00,57.9,13.4,25.45,SE,135,3.4,3.8,17,0.00,,---,0.00,VWS V14.01,2013-02-17 15:16:00,
2013-02-17 09:21:00,59.2,14.4,25.45,SE,135,3.1,3.6,17,0.00,,---,0.00,VWS V14.01,2013-02-17 15:21:00,
2013-02-17 09:26:00,59.4,14.6,25.45,SE,135,3.6,4.3,17,0.00,,---,0.00,VWS V14.01,2013-02-17 15:26:00,
2013-02-17 09:31:00,59.0,14.3,25.45,SSW,202,2.7,6.5,17,0.00,,---,0.00,VWS V14.01,2013-02-17 15:31:00,
2013-02-17 09:36:00,59.4,14.6,25.45,South,180,4.5,8.1,17,0.00,,---,0.00,VWS V14.01,2013-02-17 15:36:00,
2013-02-17 09:41:00,59.7,14.9,25.45,South,180,3.6,3.6,17,0.00,,---,0.00,VWS V14.01,2013-02-17 15:41:00,
2013-02-17 09:46:00,59.9,15.0,25.45,SSW,202,8.1,8.1,17,0.00,,---,0.00,VWS V14.01,2013-02-17 15:46:00,
2013-02-17 09:51:00,59.2,14.4,25.45,SSW,202,10.7,10.7,17,0.00,,---,0.00,VWS V14.01,2013-02-17 15:51:00,
2013-02-17 09:56:00,59.4,14.6,25.45,South,180,8.1,17.0,17,0.00,,---,0.00,VWS V14.01,2013-02-17 15:56:00,
2013-02-17 10:01:00,58.8,14.1,25.45,SSW,202,11.0,13.2,17,0.00,,---,0.00,VWS V14.01,2013-02-17 16:01:00,
2013-02-17 10:06:00,59.4,14.6,25.45,SSW,202,12.3,12.3,17,0.00,,---,0.00,VWS V14.01,2013-02-17 16:06:00,
2013-02-17 10:11:00,59.7,14.9,25.45,SSW,202,10.3,10.3,17,0.00,,---,0.00,VWS V14.01,2013-02-17 16:11:00,
2013-02-17 10:16:00,60.4,15.4,25.42,SW,225,10.7,13.2,17,0.00,,---,0.00,VWS V14.01,2013-02-17 16:16:00,
2013-02-17 10:21:00,60.3,15.3,25.42,SSW,202,12.5,17.2,17,0.00,,---,0.00,VWS V14.01,2013-02-17 16:21:00,
2013-02-17 10:26:00,60.4,15.4,25.42,SSW,202,13.2,13.6,17,0.00,,---,0.00,VWS V14.01,2013-02-17 16:26:00,
2013-02-17 10:31:00,61.0,14.5,25.42,SW,225,14.3,16.6,16,0.00,,---,0.00,VWS V14.01,2013-02-17 16:31:00,
2013-02-17 10:36:00,60.6,15.6,25.42,SSW,202,17.0,17.0,17,0.00,,---,0.00,VWS V14.01,2013-02-17 16:36:00,
2013-02-17 10:41:00,61.0,14.5,25.42,SSW,202,10.5,12.3,16,0.00,,---,0.00,VWS V14.01,2013-02-17 16:41:00,
2013-02-17 10:46:00,61.3,14.8,25.42,SSE,158,8.7,13.0,16,0.00,,---,0.00,VWS V14.01,2013-02-17 16:46:00,
2013-02-17 10:51:00,62.1,15.4,25.42,South,180,13.0,13.0,16,0.00,,---,0.00,VWS V14.01,2013-02-17 16:51:00,
2013-02-17 10:56:00,62.4,15.7,25.42,SSW,202,9.8,14.1,16,0.00,,---,0.00,VWS V14.01,2013-02-17 16:56:00,
2013-02-17 11:01:00,62.4,15.7,25.42,SW,225,13.9,14.8,16,0.00,,---,0.00,VWS V14.01,2013-02-17 17:01:00,
2013-02-17 11:06:00,63.9,16.8,25.42,SSW,202,9.4,9.4,16,0.00,,---,0.00,VWS V14.01,2013-02-17 17:06:00,
2013-02-17 11:11:00,62.8,15.9,25.42,SSW,202,17.9,17.9,16,0.00,,---,0.00,VWS V14.01,2013-02-17 17:11:00,
2013-02-17 11:16:00,62.4,15.7,25.42,SW,225,10.3,12.5,16,0.00,,---,0.00,VWS V14.01,2013-02-17 17:16:00,
2013-02-17 11:21:00,62.6,15.8,25.42,SSW,202,13.0,15.4,16,0.00,,---,0.00,VWS V14.01,2013-02-17 17:21:00,
2013-02-17 11:26:00,63.1,16.2,25.42,SSW,202,11.0,11.0,16,0.00,,---,0.00,VWS V14.01,2013-02-17 17:26:00,
2013-02-17 11:31:00,63.1,16.2,25.42,SW,225,17.5,19.7,16,0.00,,---,0.00,VWS V14.01,2013-02-17 17:31:00,
2013-02-17 11:36:00,62.8,15.9,25.42,SSW,202,10.1,19.2,16,0.00,,---,0.00,VWS V14.01,2013-02-17 17:36:00,
2013-02-17 11:41:00,62.6,15.8,25.42,SW,225,14.8,17.0,16,0.00,,---,0.00,VWS V14.01,2013-02-17 17:41:00,
2013-02-17 11:46:00,63.0,16.1,25.42,SSW,202,13.6,18.8,16,0.00,,---,0.00,VWS V14.01,2013-02-17 17:46:00,
2013-02-17 11:51:00,63.7,16.7,25.42,SSW,202,13.4,15.4,16,0.00,,---,0.00,VWS V14.01,2013-02-17 17:51:00,
2013-02-17 11:56:00,63.7,16.7,25.42,SSW,202,17.2,17.2,16,0.00,,---,0.00,VWS V14.01,2013-02-17 17:56:00,
2013-02-17 12:01:00,64.2,17.1,25.42,SSW,202,15.2,15.2,16,0.00,,---,0.00,VWS V14.01,2013-02-17 18:01:00,
2013-02-17 12:06:00,63.5,16.5,25.42,SSW,202,16.3,17.9,16,0.00,,---,0.00,VWS V14.01,2013-02-17 18:06:00,
2013-02-17 12:11:00,63.3,16.4,25.42,SSW,202,12.3,14.5,16,0.00,,---,0.00,VWS V14.01,2013-02-17 18:11:00,
2013-02-17 12:16:00,64.9,16.2,25.39,South,180,10.3,10.3,15,0.00,,---,0.00,VWS V14.01,2013-02-17 18:16:00,
2013-02-17 12:21:00,64.6,15.9,25.39,SW,225,11.2,17.2,15,0.00,,---,0.00,VWS V14.01,2013-02-17 18:21:00,
2013-02-17 12:26:00,64.9,16.2,25.39,SSW,202,17.5,17.5,15,0.00,,---,0.00,VWS V14.01,2013-02-17 18:26:00,
2013-02-17 12:31:00,64.4,15.8,25.39,SSW,202,13.0,13.0,15,0.00,,---,0.00,VWS V14.01,2013-02-17 18:31:00,
2013-02-17 12:36:00,64.9,16.2,25.39,SSW,202,8.5,9.0,15,0.00,,---,0.00,VWS V14.01,2013-02-17 18:36:00,
2013-02-17 12:41:00,65.5,16.6,25.39,SW,225,10.5,10.5,15,0.00,,---,0.00,VWS V14.01,2013-02-17 18:41:00,
2013-02-17 12:46:00,65.7,16.8,25.37,SSW,202,8.5,17.2,15,0.00,,---,0.00,VWS V14.01,2013-02-17 18:46:00,
2013-02-17 12:51:00,65.1,16.4,25.37,SSW,202,10.3,16.6,15,0.00,,---,0.00,VWS V14.01,2013-02-17 18:51:00,
2013-02-17 12:56:00,65.1,16.4,25.37,South,180,10.7,12.8,15,0.00,,---,0.00,VWS V14.01,2013-02-17 18:56:00,
2013-02-17 13:01:00,66.4,17.4,25.37,SSW,202,10.5,10.7,15,0.00,,---,0.00,VWS V14.01,2013-02-17 19:01:00,
2013-02-17 13:06:00,65.8,16.9,25.37,SW,225,13.9,14.8,15,0.00,,---,0.00,VWS V14.01,2013-02-17 19:06:00,
2013-02-17 13:11:00,66.6,17.5,25.37,SSW,202,10.5,11.0,15,0.00,,---,0.00,VWS V14.01,2013-02-17 19:11:00,
2013-02-17 13:16:00,66.4,17.4,25.37,WSW,248,11.0,13.9,15,0.00,,---,0.00,VWS V14.01,2013-02-17 19:16:00,
2013-02-17 13:21:00,66.9,17.8,25.37,SSW,202,10.7,11.0,15,0.00,,---,0.00,VWS V14.01,2013-02-17 19:21:00,
2013-02-17 13:26:00,67.3,18.1,25.37,SSW,202,12.8,14.1,15,0.00,,---,0.00,VWS V14.01,2013-02-17 19:26:00,
2013-02-17 13:31:00,66.4,17.4,25.37,SSW,202,10.7,12.1,15,0.00,,---,0.00,VWS V14.01,2013-02-17 19:31:00,
2013-02-17 13:36:00,66.2,17.2,25.37,SW,225,15.2,15.2,15,0.00,,---,0.00,VWS V14.01,2013-02-17 19:36:00,
2013-02-17 13:41:00,66.9,17.8,25.37,SSW,202,13.4,13.4,15,0.00,,---,0.00,VWS V14.01,2013-02-17 19:41:00,
2013-02-17 13:46:00,67.8,18.5,25.34,SSW,202,7.8,10.5,15,0.00,,---,0.00,VWS V14.01,2013-02-17 19:46:00,
2013-02-17 13:51:00,67.3,18.1,25.34,SW,225,10.5,17.2,15,0.00,,---,0.00,VWS V14.01,2013-02-17 19:51:00,
2013-02-17 13:56:00,67.5,18.2,25.34,SSW,202,12.8,14.3,15,0.00,,---,0.00,VWS V14.01,2013-02-17 19:56:00,
2013-02-17 14:01:00,68.0,18.7,25.34,SSW,202,21.0,21.0,15,0.00,,---,0.00,VWS V14.01,2013-02-17 20:01:00,
2013-02-17 14:06:00,67.6,18.4,25.34,SW,225,13.2,23.9,15,0.00,,---,0.00,VWS V14.01,2013-02-17 20:06:00,
2013-02-17 14:11:00,67.6,18.4,25.34,SSW,202,13.4,13.4,15,0.00,,---,0.00,VWS V14.01,2013-02-17 20:11:00,
2013-02-17 14:16:00,67.5,18.2,25.34,SW,225,24.2,24.2,15,0.00,,---,0.00,VWS V14.01,2013-02-17 20:16:00,
2013-02-17 14:21:00,67.1,17.9,25.34,SW,225,19.7,19.7,15,0.00,,---,0.00,VWS V14.01,2013-02-17 20:21:00,
2013-02-17 14:26:00,68.0,18.7,25.34,SW,225,23.7,23.7,15,0.00,,---,0.00,VWS V14.01,2013-02-17 20:26:00,
2013-02-17 14:31:00,67.3,18.1,25.31,SW,225,17.7,17.7,15,0.00,,---,0.00,VWS V14.01,2013-02-17 20:31:00,
2013-02-17 14:36:00,67.3,18.1,25.31,SSW,202,16.3,22.6,15,0.00,,---,0.00,VWS V14.01,2013-02-17 20:36:00,
2013-02-17 14:41:00,67.6,18.4,25.31,SSE,158,17.2,21.9,15,0.00,,---,0.00,VWS V14.01,2013-02-17 20:41:00,
2013-02-17 14:46:00,67.8,18.5,25.31,SW,225,17.7,19.9,15,0.00,,---,0.00,VWS V14.01,2013-02-17 20:46:00,
2013-02-17 14:51:00,67.1,17.9,25.31,SW,225,20.6,23.0,15,0.00,,---,0.00,VWS V14.01,2013-02-17 20:51:00,
2013-02-17 14:56:00,67.5,18.2,25.31,SSW,202,12.8,21.0,15,0.00,,---,0.00,VWS V14.01,2013-02-17 20:56:00,
2013-02-17 15:01:00,67.6,18.4,25.28,SW,225,14.8,22.8,15,0.00,,---,0.00,VWS V14.01,2013-02-17 21:01:00,
2013-02-17 15:06:00,68.0,18.7,25.28,SW,225,17.7,17.7,15,0.00,,---,0.00,VWS V14.01,2013-02-17 21:06:00,
2013-02-17 15:11:00,67.3,18.1,25.28,SSW,202,14.1,23.0,15,0.00,,---,0.00,VWS V14.01,2013-02-17 21:11:00,
2013-02-17 15:16:00,68.4,19.0,25.31,SW,225,15.2,17.0,15,0.00,,---,0.00,VWS V14.01,2013-02-17 21:16:00,
2013-02-17 15:21:00,68.0,18.7,25.31,SW,225,15.4,19.9,15,0.00,,---,0.00,VWS V14.01,2013-02-17 21:21:00,
2013-02-17 15:26:00,68.0,18.7,25.31,SSW,202,19.9,20.8,15,0.00,,---,0.00,VWS V14.01,2013-02-17 21:26:00,
2013-02-17 15:31:00,68.5,19.1,25.31,SSW,202,15.2,15.2,15,0.00,,---,0.00,VWS V14.01,2013-02-17 21:31:00,
2013-02-17 15:36:00,67.8,18.5,25.31,SW,225,15.4,20.4,15,0.00,,---,0.00,VWS V14.01,2013-02-17 21:36:00,
2013-02-17 15:41:00,68.7,19.2,25.31,SW,225,9.2,12.3,15,0.00,,---,0.00,VWS V14.01,2013-02-17 21:41:00,
2013-02-17 15:46:00,69.1,19.5,25.31,SSW,202,9.2,9.2,15,0.00,,---,0.00,VWS V14.01,2013-02-17 21:46:00,
2013-02-17 15:51:00,69.4,19.8,25.31,South,180,7.8,7.8,15,0.00,,---,0.00,VWS V14.01,2013-02-17 21:51:00,
2013-02-17 15:56:00,69.8,18.5,25.31,SW,225,17.7,17.7,14,0.00,,---,0.00,VWS V14.01,2013-02-17 21:56:00,
2013-02-17 16:01:00,68.2,18.8,25.31,South,180,8.1,13.0,15,0.00,,---,0.00,VWS V14.01,2013-02-17 22:01:00,
2013-02-17 16:06:00,69.1,19.5,25.31,SSE,158,9.6,10.5,15,0.00,,---,0.00,VWS V14.01,2013-02-17 22:06:00,
2013-02-17 16:11:00,68.7,19.2,25.31,SSW,202,8.5,13.6,15,0.00,,---,0.00,VWS V14.01,2013-02-17 22:11:00,
2013-02-17 16:16:00,69.1,19.5,25.31,South,180,16.1,16.1,15,0.00,,---,0.00,VWS V14.01,2013-02-17 22:16:00,
2013-02-17 16:21:00,68.9,19.4,25.31,SSW,202,14.8,17.5,15,0.00,,---,0.00,VWS V14.01,2013-02-17 22:21:00,
2013-02-17 16:26:00,68.9,19.4,25.31,SSW,202,8.5,8.5,15,0.00,,---,0.00,VWS V14.01,2013-02-17 22:26:00,
2013-02-17 16:31:00,68.9,19.4,25.31,SW,225,16.8,16.8,15,0.00,,---,0.00,VWS V14.01,2013-02-17 22:31:00,
2013-02-17 16:36:00,68.7,19.2,25.31,SW,225,12.3,12.3,15,0.00,,---,0.00,VWS V14.01,2013-02-17 22:36:00,
2013-02-17 16:41:00,68.9,19.4,25.31,SSW,202,5.6,9.0,15,0.00,,---,0.00,VWS V14.01,2013-02-17 22:41:00,
2013-02-17 16:46:00,69.4,19.8,25.28,SSW,202,16.1,18.1,15,0.00,,---,0.00,VWS V14.01,2013-02-17 22:46:00,
2013-02-17 16:51:00,68.9,19.4,25.28,SSW,202,10.3,15.7,15,0.00,,---,0.00,VWS V14.01,2013-02-17 22:51:00,
2013-02-17 16:56:00,69.1,19.5,25.28,South,180,9.6,9.6,15,0.00,,---,0.00,VWS V14.01,2013-02-17 22:56:00,
2013-02-17 17:01:00,68.5,19.1,25.28,SW,225,12.3,13.9,15,0.00,,---,0.00,VWS V14.01,2013-02-17 23:01:00,
2013-02-17 17:06:00,68.5,19.1,25.28,SSW,202,11.9,12.8,15,0.00,,---,0.00,VWS V14.01,2013-02-17 23:06:00,
2013-02-17 17:11:00,68.9,19.4,25.28,SW,225,11.2,16.8,15,0.00,,---,0.00,VWS V14.01,2013-02-17 23:11:00,
2013-02-17 17:16:00,68.4,19.0,25.28,SW,225,6.5,10.7,15,0.00,,---,0.00,VWS V14.01,2013-02-17 23:16:00,
2013-02-17 17:21:00,67.8,18.5,25.28,South,180,8.5,12.8,15,0.00,,---,0.00,VWS V14.01,2013-02-17 23:21:00,
2013-02-17 17:26:00,67.5,18.2,25.28,SSW,202,12.8,13.6,15,0.00,,---,0.00,VWS V14.01,2013-02-17 23:26:00,
2013-02-17 17:31:00,67.6,18.4,25.28,South,180,11.0,11.0,15,0.00,,---,0.00,VWS V14.01,2013-02-17 23:31:00,
2013-02-17 17:36:00,67.5,18.2,25.28,SSW,202,9.6,9.8,15,0.00,,---,0.00,VWS V14.01,2013-02-17 23:36:00,
2013-02-17 17:41:00,66.9,17.8,25.28,South,180,6.7,12.1,15,0.00,,---,0.00,VWS V14.01,2013-02-17 23:41:00,
2013-02-17 17:46:00,66.9,17.8,25.28,SSW,202,7.8,8.1,15,0.00,,---,0.00,VWS V14.01,2013-02-17 23:46:00,
2013-02-17 17:51:00,66.6,17.5,25.28,SSW,202,12.1,13.9,15,0.00,,---,0.00,VWS V14.01,2013-02-17 23:51:00,
2013-02-17 17:56:00,66.4,17.4,25.28,South,180,12.1,12.1,15,0.00,,---,0.00,VWS V14.01,2013-02-17 23:56:00,
2013-02-17 18:01:00,66.4,17.4,25.28,SSE,158,6.5,6.5,15,0.00,,---,0.00,VWS V14.01,2013-02-18 00:01:00,
2013-02-17 18:06:00,66.0,17.1,25.28,SSW,202,6.0,8.1,15,0.00,,---,0.00,VWS V14.01,2013-02-18 00:06:00,
2013-02-17 18:11:00,65.7,16.8,25.28,South,180,10.1,11.0,15,0.00,,---,0.00,VWS V14.01,2013-02-18 00:11:00,
2013-02-17 18:16:00,65.5,16.6,25.28,South,180,10.3,10.3,15,0.00,,---,0.00,VWS V14.01,2013-02-18 00:16:00,
2013-02-17 18:21:00,64.8,16.1,25.28,South,180,7.4,7.4,15,0.00,,---,0.00,VWS V14.01,2013-02-18 00:21:00,
2013-02-17 18:26:00,64.2,17.1,25.28,SSW,202,6.5,8.5,16,0.00,,---,0.00,VWS V14.01,2013-02-18 00:26:00,
2013-02-17 18:31:00,63.9,16.8,25.28,SW,225,6.5,7.6,16,0.00,,---,0.00,VWS V14.01,2013-02-18 00:31:00,
2013-02-17 18:36:00,62.4,15.7,25.28,South,180,6.0,6.3,16,0.00,,---,0.00,VWS V14.01,2013-02-18 00:36:00,
2013-02-17 18:41:00,62.1,15.4,25.28,South,180,7.8,7.8,16,0.00,,---,0.00,VWS V14.01,2013-02-18 00:41:00,
2013-02-17 18:46:00,61.5,14.9,25.28,South,180,5.6,5.6,16,0.00,,---,0.00,VWS V14.01,2013-02-18 00:46:00,
2013-02-17 18:51:00,61.0,14.5,25.28,SSW,202,6.0,8.1,16,0.00,,---,0.00,VWS V14.01,2013-02-18 00:51:00,
2013-02-17 18:56:00,60.6,15.6,25.28,SSW,202,6.5,7.8,17,0.00,,---,0.00,VWS V14.01,2013-02-18 00:56:00,
2013-02-17 19:01:00,60.3,15.3,25.31,SSW,202,7.2,7.6,17,0.00,,---,0.00,VWS V14.01,2013-02-18 01:01:00,
2013-02-17 19:06:00,59.9,15.0,25.31,South,180,5.6,6.0,17,0.00,,---,0.00,VWS V14.01,2013-02-18 01:06:00,
2013-02-17 19:11:00,59.2,14.4,25.31,SSW,202,4.9,4.9,17,0.00,,---,0.00,VWS V14.01,2013-02-18 01:11:00,
2013-02-17 19:16:00,58.8,14.1,25.31,South,180,2.9,4.9,17,0.00,,---,0.00,VWS V14.01,2013-02-18 01:16:00,
2013-02-17 19:21:00,58.5,13.8,25.31,South,180,5.4,5.4,17,0.00,,---,0.00,VWS V14.01,2013-02-18 01:21:00,
2013-02-17 19:26:00,57.2,12.8,25.31,South,180,6.3,7.8,17,0.00,,---,0.00,VWS V14.01,2013-02-18 01:26:00,
2013-02-17 19:31:00,56.3,12.1,25.28,SSE,158,5.4,5.4,17,0.00,,---,0.00,VWS V14.01,2013-02-18 01:31:00,
2013-02-17 19:36:00,55.9,11.8,25.28,ESE,112,7.2,7.2,17,0.00,,---,0.00,VWS V14.01,2013-02-18 01:36:00,
2013-02-17 19:41:00,56.3,12.1,25.28,ESE,112,7.4,7.6,17,0.00,,---,0.00,VWS V14.01,2013-02-18 01:41:00,
2013-02-17 19:46:00,55.9,11.8,25.28,South,180,7.4,8.1,17,0.00,,---,0.00,VWS V14.01,2013-02-18 01:46:00,
2013-02-17 19:51:00,55.6,11.5,25.28,SSE,158,7.4,9.6,17,0.00,,---,0.00,VWS V14.01,2013-02-18 01:51:00,
2013-02-17 19:56:00,55.6,11.5,25.28,SE,135,7.6,9.0,17,0.00,,---,0.00,VWS V14.01,2013-02-18 01:56:00,
2013-02-17 20:01:00,55.8,11.6,25.28,SSE,158,6.3,10.3,17,0.00,,---,0.00,VWS V14.01,2013-02-18 02:01:00,
2013-02-17 20:06:00,55.4,11.3,25.28,SSE,158,7.4,7.6,17,0.00,,---,0.00,VWS V14.01,2013-02-18 02:06:00,
2013-02-17 20:11:00,55.2,12.5,25.28,SE,135,11.0,11.0,18,0.00,,---,0.00,VWS V14.01,2013-02-18 02:11:00,
2013-02-17 20:16:00,55.4,11.3,25.28,SSE,158,8.7,9.0,17,0.00,,---,0.00,VWS V14.01,2013-02-18 02:16:00,
2013-02-17 20:21:00,55.2,12.5,25.28,South,180,10.1,10.7,18,0.00,,---,0.00,VWS V14.01,2013-02-18 02:21:00,
2013-02-17 20:26:00,54.9,12.2,25.28,SSE,158,7.6,10.5,18,0.00,,---,0.00,VWS V14.01,2013-02-18 02:26:00,
2013-02-17 20:31:00,54.7,12.0,25.28,South,180,8.1,10.5,18,0.00,,---,0.00,VWS V14.01,2013-02-18 02:31:00,
2013-02-17 20:36:00,54.5,11.9,25.28,SSE,158,10.7,12.5,18,0.00,,---,0.00,VWS V14.01,2013-02-18 02:36:00,
2013-02-17 20:41:00,54.3,11.7,25.28,SSE,158,10.1,12.5,18,0.00,,---,0.00,VWS V14.01,2013-02-18 02:41:00,
2013-02-17 20:46:00,54.3,11.7,25.28,South,180,8.1,10.5,18,0.00,,---,0.00,VWS V14.01,2013-02-18 02:46:00,
2013-02-17 20:51:00,54.1,11.6,25.28,SE,135,11.0,11.0,18,0.00,,---,0.00,VWS V14.01,2013-02-18 02:51:00,
2013-02-17 20:56:00,54.0,11.4,25.28,SSE,158,13.0,13.0,18,0.00,,---,0.00,VWS V14.01,2013-02-18 02:56:00,
2013-02-17 21:01:00,54.0,11.4,25.28,SSE,158,10.3,13.6,18,0.00,,---,0.00,VWS V14.01,2013-02-18 03:01:00,
2013-02-17 21:06:00,53.6,11.1,25.28,SSE,158,11.0,11.0,18,0.00,,---,0.00,VWS V14.01,2013-02-18 03:06:00,
2013-02-17 21:11:00,53.8,11.3,25.28,SSE,158,7.8,12.8,18,0.00,,---,0.00,VWS V14.01,2013-02-18 03:11:00,
2013-02-17 21:16:00,53.8,11.3,25.31,SE,135,10.5,11.4,18,0.00,,---,0.00,VWS V14.01,2013-02-18 03:16:00,
2013-02-17 21:21:00,54.0,11.4,25.31,South,180,10.1,12.5,18,0.00,,---,0.00,VWS V14.01,2013-02-18 03:21:00,
2013-02-17 21:26:00,53.8,11.3,25.31,SSE,158,10.7,10.7,18,0.00,,---,0.00,VWS V14.01,2013-02-18 03:26:00,
2013-02-17 21:31:00,53.4,11.0,25.28,SSE,158,11.0,12.5,18,0.00,,---,0.00,VWS V14.01,2013-02-18 03:31:00,
2013-02-17 21:36:00,53.2,10.9,25.28,SE,135,10.7,12.1,18,0.00,,---,0.00,VWS V14.01,2013-02-18 03:36:00,
2013-02-17 21:41:00,53.4,11.0,25.28,SSE,158,8.7,12.5,18,0.00,,---,0.00,VWS V14.01,2013-02-18 03:41:00,
2013-02-17 21:46:00,53.4,11.0,25.31,SE,135,13.0,13.0,18,0.00,,---,0.00,VWS V14.01,2013-02-18 03:46:00,
2013-02-17 21:51:00,54.0,11.4,25.31,SE,135,10.1,14.5,18,0.00,,---,0.00,VWS V14.01,2013-02-18 03:51:00,
2013-02-17 21:56:00,53.8,11.3,25.31,SSE,158,10.7,14.8,18,0.00,,---,0.00,VWS V14.01,2013-02-18 03:56:00,
2013-02-17 22:01:00,53.8,11.3,25.28,SE,135,13.0,13.0,18,0.00,,---,0.00,VWS V14.01,2013-02-18 04:01:00,
2013-02-17 22:06:00,53.8,13.7,25.28,SSE,158,10.5,14.5,20,0.00,,---,0.00,VWS V14.01,2013-02-18 04:06:00,
2013-02-17 22:11:00,53.6,13.5,25.28,SSE,158,12.1,13.0,20,0.00,,---,0.00,VWS V14.01,2013-02-18 04:11:00,
2013-02-17 22:16:00,53.1,14.2,25.28,SSE,158,9.8,13.2,21,0.00,,---,0.00,VWS V14.01,2013-02-18 04:16:00,
2013-02-17 22:21:00,52.9,14.0,25.28,SSE,158,12.1,12.1,21,0.00,,---,0.00,VWS V14.01,2013-02-18 04:21:00,
2013-02-17 22:26:00,52.7,13.9,25.28,South,180,9.6,12.5,21,0.00,,---,0.00,VWS V14.01,2013-02-18 04:26:00,
2013-02-17 22:31:00,52.7,13.9,25.28,SE,135,12.3,12.3,21,0.00,,---,0.00,VWS V14.01,2013-02-18 04:31:00,
2013-02-17 22:36:00,52.7,13.9,25.28,South,180,10.3,10.3,21,0.00,,---,0.00,VWS V14.01,2013-02-18 04:36:00,
2013-02-17 22:41:00,52.5,13.7,25.28,SSE,158,12.8,13.2,21,0.00,,---,0.00,VWS V14.01,2013-02-18 04:41:00,
2013-02-17 22:46:00,52.5,13.7,25.28,SE,135,11.4,11.4,21,0.00,,---,0.00,VWS V14.01,2013-02-18 04:46:00,
2013-02-17 22:51:00,52.5,13.7,25.28,SSE,158,13.2,15.7,21,0.00,,---,0.00,VWS V14.01,2013-02-18 04:51:00,
2013-02-17 22:56:00,52.7,13.9,25.28,SSE,158,13.4,15.2,21,0.00,,---,0.00,VWS V14.01,2013-02-18 04:56:00,
2013-02-17 23:00:00,53.1,14.2,25.28,SSE,158,12.5,12.5,21,0.00,,---,0.00,VWS V14.01,2013-02-18 05:00:00,
2013-02-17 23:05:00,53.6,13.5,25.28,SSE,158,9.8,9.8,20,0.00,,---,0.00,VWS V14.01,2013-02-18 05:05:00,
2013-02-17 23:10:00,53.6,13.5,25.28,SE,135,11.0,12.5,20,0.00,,---,0.00,VWS V14.01,2013-02-18 05:10:00,
2013-02-17 23:15:00,53.4,14.5,25.28,South,180,10.5,13.6,21,0.00,,---,0.00,VWS V14.01,2013-02-18 05:15:00,
2013-02-17 23:20:00,53.1,14.2,25.28,SSE,158,13.2,13.2,21,0.00,,---,0.00,VWS V14.01,2013-02-18 05:20:00,
2013-02-17 23:25:00,52.9,14.0,25.28,SSE,158,10.3,13.9,21,0.00,,---,0.00,VWS V14.01,2013-02-18 05:25:00,
2013-02-17 23:30:00,53.1,14.2,25.28,SSE,158,14.8,16.3,21,0.00,,---,0.00,VWS V14.01,2013-02-18 05:30:00,
2013-02-17 23:35:00,52.9,14.0,25.28,SE,135,15.2,17.2,21,0.00,,---,0.00,VWS V14.01,2013-02-18 05:35:00,
2013-02-17 23:40:00,52.9,14.0,25.28,SE,135,12.5,14.8,21,0.00,,---,0.00,VWS V14.01,2013-02-18 05:40:00,
2013-02-17 23:45:00,52.7,13.9,25.28,SSE,158,12.8,17.0,21,0.00,,---,0.00,VWS V14.01,2013-02-18 05:45:00,
2013-02-17 23:50:00,52.9,14.0,25.28,SSE,158,18.6,18.6,21,0.00,,---,0.00,VWS V14.01,2013-02-18 05:50:00,
2013-02-17 23:55:00,53.1,14.2,25.28,SSE,158,10.7,19.9,21,0.00,,---,0.00,VWS V14.01,2013-02-18 05:55:00,